This is the latest recevied weather packets stored in our database for station/object AE0NK. If no packets are shown the sender has not sent any weather packets the latest 10 day(s).
| Time | Temp. | Humidity | Pressure | Rain* | Wind** | Luminosity | Snow |
|---|---|---|---|---|---|---|---|
| 1777588094 | 12.22° C | 54% | 1014.4 hPa | 0 mm | - | 107 W/m² | - |
| 1777587810 | 12.22° C | 56% | 1014.4 hPa | 0 mm | - | 109 W/m² | - |
| 1777587508 | 12.78° C | 53% | 1014.4 hPa | 0 mm | - | 104 W/m² | - |
| 1777587205 | 12.78° C | 51% | 1014.4 hPa | 0 mm | - | 352 W/m² | - |
| 1777586903 | 12.78° C | 52% | 1014.4 hPa | 0 mm | - | 200 W/m² | - |
| 1777586601 | 12.78° C | 54% | 1014.4 hPa | 0 mm | - | 497 W/m² | - |
| 1777586294 | 12.78° C | 54% | 1014.5 hPa | 0 mm | - | 248 W/m² | - |
| 1777586011 | 13.33° C | 52% | 1014.5 hPa | 0 mm | - | 160 W/m² | - |
| 1777585707 | 12.78° C | 56% | 1014.5 hPa | 0 mm | - | 631 W/m² | - |
| 1777585402 | 12.78° C | 55% | 1014.6 hPa | 0 mm | - | 489 W/m² | - |
| 1777585101 | 12.22° C | 58% | 1014.6 hPa | 0 mm | - | 301 W/m² | - |
| 1777584798 | 12.22° C | 61% | 1014.7 hPa | 0 mm | - | 297 W/m² | - |
| 1777584497 | 11.67° C | 62% | 1014.7 hPa | 0 mm | - | 239 W/m² | - |
| 1777584217 | 12.22° C | 64% | 1014.7 hPa | 0 mm | - | 232 W/m² | - |
| 1777583909 | 11.67° C | 65% | 1014.8 hPa | 0 mm | - | 274 W/m² | - |
| 1777583606 | 12.22° C | 64% | 1014.8 hPa | 0 mm | - | 350 W/m² | - |
| 1777583303 | 11.67° C | 64% | 1014.7 hPa | 0 mm | - | 301 W/m² | - |
| 1777583000 | 11.67° C | 67% | 1014.8 hPa | 0 mm | - | 237 W/m² | - |
| 1777582695 | 11.11° C | 67% | 1014.8 hPa | 0 mm | - | 309 W/m² | - |
| 1777582411 | 11.11° C | 68% | 1014.9 hPa | 0 mm | - | 221 W/m² | - |
| 1777582108 | 10.56° C | 70% | 1014.9 hPa | 0 mm | - | 153 W/m² | - |
| 1777581805 | 10.56° C | 71% | 1015 hPa | 0 mm | - | 158 W/m² | - |
| 1777581502 | 10.56° C | 72% | 1015.1 hPa | 0 mm | - | 114 W/m² | - |
| 1777581200 | 10.56° C | 73% | 1015.2 hPa | 0 mm | - | 120 W/m² | - |
| 1777580899 | 10.56° C | 74% | 1015.2 hPa | 0 mm | - | 70 W/m² | - |
* Rain latest hour (hover to see other rain measurements)
** Current wind speed in m/s (hover to see current wind gust speed)